CW1334 Weather Reports


Display with metric or nautical units.
time (UTC)temp
F
wind
direction
speed
MPH
gust
MPH
rain 1hr
in
rain 24hr
in
rain mn
in
humidity
%
barometer
mb
20260507011558 70 20 4.0 9.0 0.00 0.00 0.00 21 1006.4
20260507010114 71 343 8.0 17.0 0.00 0.00 0.00 20 1006.5
20260507004557 71 339 11.0 16.0 0.00 0.00 0.00 20 1006.6
20260507003058 72 344 9.0 18.0 0.00 0.00 0.00 20 1006.4
20260507001558 72 336 13.0 22.0 0.00 0.00 0.00 20 1006.5
20260507000059 72 284 10.0 19.0 0.00 0.00 0.00 19 1006.7
20260506234602 70 0 1.0 8.0 0.00 0.00 0.00 21 1006.7
20260506233100 71 201 2.0 7.0 0.00 0.00 0.00 20 1006.7
20260506231551 70 0 1.0 4.0 0.00 0.00 0.00 20 1006.9
20260506230054 70 311 3.0 10.0 0.00 0.00 0.00 21 1007.2
20260506224554 71 0 0.0 5.0 0.00 0.00 0.00 20 1007.3
20260506223100 69 253 4.0 10.0 0.00 0.00 0.00 21 1007.7
20260506221553 68 286 6.0 16.0 0.00 0.00 0.00 21 1007.9
20260506220054 68 217 7.0 15.0 0.00 0.00 0.00 21 1008.0
20260506214556 67 275 4.0 17.0 0.00 0.00 0.00 21 1008.2
20260506213055 66 263 5.0 15.0 0.00 0.00 0.00 21 1008.6
20260506211554 66 284 10.0 21.0 0.00 0.00 0.00 21 1008.8
20260506210056 65 251 11.0 19.0 0.00 0.00 0.00 21 1009.1
20260506204608 65 263 4.0 14.0 0.00 0.00 0.00 22 1009.2
20260506203055 64 299 6.0 16.0 0.00 0.00 0.00 22 1009.5
20260506201600 63 0 5.0 15.0 0.00 0.00 0.00 23 1009.7
20260506200057 62 260 4.0 19.0 0.00 0.00 0.00 23 1009.9
20260506194600 61 213 5.0 19.0 0.00 0.00 0.00 24 1010.2
20260506193104 60 221 4.0 13.0 0.00 0.00 0.00 24 1010.5
20260506191610 59 192 6.0 15.0 0.00 0.00 0.00 24 1010.9
20260506190110 59 192 5.0 12.0 0.00 0.00 0.00 24 1011.1
20260506184609 58 213 4.0 14.0 0.00 0.00 0.00 23 1011.3
20260506183109 56 199 4.0 16.0 0.00 0.00 0.00 24 1011.7
20260506181609 56 192 5.0 11.0 0.00 0.00 0.00 23 1011.8
20260506180054 55 0 9.0 15.0 0.00 0.00 0.00 22 1012.2
20260506174600 54 186 6.0 15.0 0.00 0.00 0.00 23 1012.4
20260506173125 53 227 7.0 13.0 0.00 0.00 0.00 26 1012.6
20260506171600 52 146 6.0 13.0 0.00 0.00 0.00 31 1013.0
20260506170053 51 186 5.0 11.0 0.00 0.00 0.00 31 1013.3
20260506164559 50 184 6.0 15.0 0.00 0.00 0.00 35 1013.5
20260506163100 49 153 6.0 15.0 0.00 0.00 0.00 38 1013.6
20260506161608 48 172 3.0 11.0 0.00 0.00 0.00 43 1013.7
20260506160107 45 204 5.0 12.0 0.00 0.00 0.00 47 1014.1
20260506154600 44 192 6.0 10.0 0.00 0.00 0.00 50 1014.4
20260506153052 42 207 4.0 12.0 0.00 0.00 0.00 53 1014.7
20260506151555 41 191 7.0 12.0 0.00 0.00 0.00 54 1014.9
20260506150101 39 200 6.0 10.0 0.00 0.00 0.00 58 1015.2
20260506144611 38 203 5.0 11.0 0.00 0.00 0.00 59 1015.5
20260506143056 37 218 2.0 5.0 0.00 0.00 0.00 57 1015.6
20260506141554 35 5 1.0 3.0 0.00 0.00 0.00 55 1015.8
20260506140107 34 5 0.0 2.0 0.00 0.00 0.00 54 1015.9
20260506134557 31 0 0.0 1.0 0.00 0.00 0.00 56 1015.9
20260506133134 28 0 0.0 1.0 0.00 0.00 0.00 60 1015.9
20260506131552 25 0 0.0 2.0 0.00 0.00 0.00 64 1015.9
20260506130137 23 5 1.0 3.0 0.00 0.00 0.00 67 1015.9
20260506124559 20 5 2.0 5.0 0.00 0.00 0.00 70 1016.2
20260506123101 18 5 3.0 5.0 0.00 0.00 0.00 71 1016.1
20260506121602 18 5 3.0 6.0 0.00 0.00 0.00 72 1016.2
20260506120100 17 5 3.0 6.0 0.00 0.00 0.00 71 1016.4
20260506114553 17 5 3.0 5.0 0.00 0.00 0.00 71 1016.4
20260506113103 18 5 3.0 5.0 0.00 0.00 0.00 72 1016.7
20260506111558 18 5 2.0 5.0 0.00 0.00 0.00 71 1016.8
20260506110054 18 5 3.0 5.0 0.00 0.00 0.00 71 1017.1
20260506104604 18 344 2.0 5.0 0.00 0.00 0.00 70 1017.3
20260506103106 18 344 2.0 5.0 0.00 0.00 0.00 68 1017.4
20260506101556 19 344 1.0 4.0 0.00 0.00 0.00 68 1017.4
20260506100107 19 344 2.0 5.0 0.00 0.00 0.00 67 1017.6
20260506094600 19 348 4.0 8.0 0.00 0.00 0.00 66 1017.6
20260506093052 21 360 3.0 6.0 0.00 0.00 0.00 64 1017.6
20260506091553 22 335 2.0 4.0 0.00 0.00 0.00 64 1017.8
20260506090052 22 335 1.0 4.0 0.00 0.00 0.00 65 1017.9
20260506084554 23 335 2.0 3.0 0.00 0.00 0.00 67 1018.1
20260506083056 23 0 0.0 1.0 0.00 0.00 0.00 65 1018.2
20260506081607 23 0 0.0 3.0 0.00 0.00 0.00 63 1018.3
20260506073052 24 335 2.0 5.0 0.00 0.00 0.00 60 1018.4
20260506071553 24 335 2.0 4.0 0.00 0.00 0.00 60 1018.5
20260506061554 25 350 4.0 6.0 0.00 0.00 0.00 57 1018.5
20260506044553 32 24 2.0 4.0 0.00 0.00 0.00 48 1018.7
20260506043053 33 24 3.0 4.0 0.00 0.00 0.00 47 1018.7
20260506041551 34 0 1.0 3.0 0.00 0.00 0.00 45 1018.9
20260506040055 35 24 1.0 3.0 0.00 0.00 0.00 43 1018.9
20260506034612 36 24 1.0 2.0 0.00 0.00 0.00 41 1018.8
20260506033058 38 24 0.0 5.0 0.00 0.00 0.00 42 1018.7
20260506031601 40 24 3.0 8.0 0.00 0.00 0.00 38 1018.7
20260506030057 41 75 3.0 9.0 0.00 0.00 0.00 37 1018.6
20260506024555 43 55 3.0 10.0 0.00 0.00 0.00 36 1018.6
20260506023058 44 30 6.0 16.0 0.00 0.00 0.00 35 1018.5
20260506021553 45 46 8.0 13.0 0.00 0.00 0.00 34 1018.5
20260506020057 45 17 8.0 17.0 0.00 0.00 0.00 33 1018.5
20260506014553 46 355 8.0 16.0 0.00 0.00 0.00 33 1018.3
20260506013107 46 49 10.0 16.0 0.00 0.00 0.00 33 1018.2